SNR019 WADD-YBAS

Flight info

Callsign SNR019
Flight time 3h 4m
Altitude 41000
Route NYOMA G326 ONOXA A587 AS
Aircraft B77W/H-SDE3GHIJ2J3J5M1RVWXY/LB2D1

Departure

Time 2026-04-23 20:29
Airport Denpasar I Gusti Ngurah Rai International Airport (WADD)

Arrival

Time 2026-04-23 23:33
Airport Alice Springs Airport (YBAS)
Time Latitude Longitude Altitude Speed Heading
2026-04-23 20:16 -8.74564 115.17553 27 ft 0 kts 359°
2026-04-23 20:24 -8.74559 115.17555 27 ft 2 kts 20°
2026-04-23 20:25 -8.74554 115.17568 27 ft 3 kts 81°
2026-04-23 20:25 -8.74567 115.17590 27 ft 6 kts 124°
2026-04-23 20:25 -8.74600 115.17639 27 ft 11 kts 124°
2026-04-23 20:25 -8.74631 115.17724 27 ft 15 kts 96°
2026-04-23 20:26 -8.74630 115.17848 28 ft 20 kts 86°
2026-04-23 20:26 -8.74624 115.17987 28 ft 10 kts 87°
2026-04-23 20:26 -8.74642 115.18061 28 ft 9 kts 130°
2026-04-23 20:26 -8.74709 115.18091 29 ft 13 kts 173°
2026-04-23 20:27 -8.74775 115.18078 29 ft 10 kts 223°
2026-04-23 20:27 -8.74791 115.18006 29 ft 12 kts 266°
2026-04-23 20:27 -8.74792 115.17990 29 ft 0 kts 266°
2026-04-23 20:28 -8.74793 115.17981 29 ft 10 kts 267°
2026-04-23 20:28 -8.74808 115.17625 27 ft 92 kts 268°
2026-04-23 20:29 -8.74844 115.16718 28 ft 165 kts 267°
2026-04-23 20:29 -8.74904 115.15394 305 ft 199 kts 266°
2026-04-23 20:29 -8.74975 115.13973 992 ft 206 kts 268°
2026-04-23 20:29 -8.75009 115.12520 1738 ft 208 kts 271°
2026-04-23 20:30 -8.75045 115.11013 2158 ft 225 kts 259°
2026-04-23 20:30 -8.77091 115.08357 3083 ft 250 kts 218°
2026-04-23 20:30 -8.78471 115.07164 3501 ft 269 kts 221°
2026-04-23 20:31 -8.79894 115.05996 4489 ft 259 kts 212°
2026-04-23 20:31 -8.81428 115.05093 5452 ft 249 kts 208°
2026-04-23 20:31 -8.82954 115.04182 5972 ft 267 kts 208°
2026-04-23 20:31 -8.84655 115.03239 6328 ft 287 kts 205°
2026-04-23 20:32 -8.86478 115.02465 7178 ft 278 kts 193°
2026-04-23 20:32 -8.88302 115.02144 8400 ft 258 kts 180°
2026-04-23 20:32 -8.90078 115.02309 8931 ft 267 kts 161°
2026-04-23 20:32 -8.91788 115.03237 9142 ft 284 kts 135°
2026-04-23 20:33 -8.92914 115.04802 9895 ft 273 kts 114°
2026-04-23 20:33 -8.93744 115.06479 10821 ft 268 kts 115°
2026-04-23 20:33 -8.94614 115.08256 10973 ft 298 kts 114°
2026-04-23 20:33 -8.95550 115.10161 11675 ft 300 kts 115°
2026-04-23 20:34 -8.96545 115.12021 12456 ft 309 kts 118°
2026-04-23 20:34 -8.97704 115.13948 12789 ft 331 kts 120°
2026-04-23 20:34 -8.98964 115.15966 13402 ft 344 kts 121°
2026-04-23 20:34 -9.00284 115.18071 13752 ft 366 kts 121°
2026-04-23 20:35 -9.01685 115.20323 13975 ft 389 kts 121°
2026-04-23 20:35 -9.03140 115.22671 14626 ft 394 kts 121°
2026-04-23 20:35 -9.04600 115.25034 15387 ft 402 kts 121°
2026-04-23 20:35 -9.06103 115.27474 15879 ft 411 kts 121°
2026-04-23 20:36 -9.07583 115.29878 17253 ft 395 kts 121°
2026-04-23 20:36 -9.09037 115.32243 18063 ft 402 kts 121°
2026-04-23 20:36 -9.10594 115.34639 18493 ft 414 kts 124°
2026-04-23 20:36 -9.12280 115.37050 18951 ft 424 kts 125°
2026-04-23 20:37 -9.13993 115.39506 19521 ft 429 kts 124°
2026-04-23 20:37 -9.15687 115.41997 20156 ft 433 kts 123°
2026-04-23 20:37 -9.17373 115.44544 20795 ft 437 kts 123°
2026-04-23 20:37 -9.19052 115.47128 21375 ft 442 kts 122°
2026-04-23 20:38 -9.20741 115.49757 21984 ft 447 kts 122°
2026-04-23 20:38 -9.22442 115.52417 22532 ft 452 kts 122°
2026-04-23 20:38 -9.24157 115.55102 23070 ft 458 kts 122°
2026-04-23 20:38 -9.25890 115.57813 23672 ft 460 kts 122°
2026-04-23 20:39 -9.27637 115.60544 24141 ft 464 kts 122°
2026-04-23 20:39 -9.29393 115.63289 24700 ft 465 kts 122°
2026-04-23 20:39 -9.31155 115.66042 25215 ft 468 kts 122°
2026-04-23 20:39 -9.32934 115.68823 25580 ft 474 kts 122°
2026-04-23 20:40 -9.34730 115.71630 26061 ft 476 kts 122°
2026-04-23 20:40 -9.36536 115.74455 26511 ft 480 kts 122°
2026-04-23 20:40 -9.38357 115.77302 26977 ft 483 kts 122°
2026-04-23 20:40 -9.40173 115.80162 27492 ft 484 kts 120°
2026-04-23 20:41 -9.41796 115.83161 27896 ft 487 kts 115°
2026-04-23 20:41 -9.43136 115.86323 28321 ft 490 kts 108°
2026-04-23 20:41 -9.44204 115.89614 28713 ft 493 kts 106°
2026-04-23 20:41 -9.45239 115.92939 29101 ft 496 kts 107°
2026-04-23 20:42 -9.46276 115.96282 29539 ft 498 kts 107°
2026-04-23 20:42 -9.47324 115.99631 29933 ft 501 kts 106°
2026-04-23 20:42 -9.48390 116.03007 30213 ft 504 kts 107°
2026-04-23 20:42 -9.49467 116.06393 30540 ft 505 kts 107°
2026-04-23 20:43 -9.50532 116.09725 31002 ft 503 kts 107°
2026-04-23 20:43 -9.51623 116.13129 31460 ft 502 kts 107°
2026-04-23 20:43 -9.52690 116.16459 31719 ft 505 kts 107°
2026-04-23 20:43 -9.53771 116.19835 32195 ft 503 kts 107°
2026-04-23 20:44 -9.54845 116.23191 32705 ft 500 kts 107°
2026-04-23 20:44 -9.55917 116.26544 33135 ft 499 kts 107°
2026-04-23 20:44 -9.56983 116.29881 33610 ft 497 kts 107°
2026-04-23 20:44 -9.58043 116.33200 34128 ft 493 kts 107°
2026-04-23 20:45 -9.59095 116.36498 34533 ft 491 kts 107°
2026-04-23 20:45 -9.60146 116.39790 34872 ft 491 kts 106°
2026-04-23 20:45 -9.61193 116.43077 35223 ft 490 kts 106°
2026-04-23 20:45 -9.62239 116.46359 35624 ft 488 kts 107°
2026-04-23 20:46 -9.63277 116.49613 36016 ft 486 kts 106°
2026-04-23 20:46 -9.64313 116.52866 36374 ft 484 kts 106°
2026-04-23 20:46 -9.65348 116.56114 36733 ft 483 kts 107°
2026-04-23 20:46 -9.66380 116.59357 36792 ft 487 kts 106°
2026-04-23 20:47 -9.68450 116.65862 36826 ft 481 kts 106°
2026-04-23 20:47 -9.70489 116.72279 36836 ft 477 kts 106°
2026-04-23 20:48 -9.72520 116.78671 36848 ft 476 kts 106°
2026-04-23 20:48 -9.75028 116.84893 36840 ft 479 kts 116°
2026-04-23 20:49 -9.78448 116.90693 36855 ft 480 kts 119°
2026-04-23 20:49 -9.81952 116.96480 36852 ft 482 kts 120°
2026-04-23 20:50 -9.84844 117.01313 36848 ft 483 kts 119°
2026-04-23 20:50 -9.88309 117.07152 36844 ft 484 kts 119°
2026-04-23 20:51 -9.91774 117.13005 36850 ft 484 kts 118°
2026-04-23 20:51 -9.95242 117.18864 36850 ft 485 kts 119°
2026-04-23 20:52 -9.98714 117.24730 36847 ft 484 kts 119°
2026-04-23 20:52 -10.02179 117.30586 36850 ft 484 kts 119°
2026-04-23 20:53 -10.05615 117.36455 36847 ft 483 kts 118°
2026-04-23 20:53 -10.08940 117.42371 36843 ft 483 kts 117°
2026-04-23 20:54 -10.12244 117.48302 36850 ft 482 kts 117°
2026-04-23 20:54 -10.15557 117.54223 36850 ft 482 kts 117°
2026-04-23 20:55 -10.18873 117.60133 36853 ft 482 kts 117°
2026-04-23 20:55 -10.22189 117.66039 36851 ft 481 kts 117°
2026-04-23 20:56 -10.25502 117.71943 36852 ft 481 kts 117°
2026-04-23 20:56 -10.28811 117.77845 36852 ft 481 kts 117°
2026-04-23 20:57 -10.32123 117.83756 36849 ft 481 kts 117°
2026-04-23 20:57 -10.35431 117.89662 36851 ft 481 kts 118°
2026-04-23 20:58 -10.38743 117.95578 36855 ft 483 kts 117°
2026-04-23 20:58 -10.42063 118.01516 36859 ft 484 kts 118°
2026-04-23 20:59 -10.45366 118.07421 36859 ft 485 kts 117°
2026-04-23 20:59 -10.48697 118.13380 36855 ft 485 kts 117°
2026-04-23 21:00 -10.52024 118.19337 36855 ft 485 kts 116°
2026-04-23 21:00 -10.55351 118.25297 36860 ft 485 kts 117°
2026-04-23 21:01 -10.58678 118.31258 36857 ft 484 kts 117°
2026-04-23 21:01 -10.61995 118.37206 36854 ft 484 kts 117°
2026-04-23 21:02 -10.65302 118.43140 36856 ft 483 kts 117°
2026-04-23 21:02 -10.68619 118.49095 36857 ft 483 kts 117°
2026-04-23 21:03 -10.71929 118.55040 36856 ft 483 kts 117°
2026-04-23 21:03 -10.75242 118.60996 36858 ft 483 kts 117°
2026-04-23 21:04 -10.78550 118.66945 36862 ft 484 kts 117°
2026-04-23 21:04 -10.81863 118.72905 36860 ft 484 kts 117°
2026-04-23 21:05 -10.85151 118.78825 36862 ft 484 kts 117°
2026-04-23 21:05 -10.88460 118.84786 36863 ft 484 kts 117°
2026-04-23 21:06 -10.91791 118.90789 36859 ft 484 kts 117°
2026-04-23 21:06 -10.95082 118.96724 36862 ft 485 kts 116°
2026-04-23 21:07 -10.98396 119.02704 36869 ft 486 kts 117°
2026-04-23 21:07 -11.01716 119.08699 36866 ft 487 kts 116°
2026-04-23 21:08 -11.05043 119.14708 36869 ft 487 kts 116°
2026-04-23 21:08 -11.08368 119.20719 36869 ft 487 kts 117°
2026-04-23 21:09 -11.11695 119.26737 36922 ft 490 kts 117°
2026-04-23 21:09 -11.13362 119.29755 37216 ft 489 kts 117°
2026-04-23 21:09 -11.15029 119.32770 37590 ft 487 kts 117°
2026-04-23 21:10 -11.16692 119.35780 37857 ft 487 kts 117°
2026-04-23 21:10 -11.18334 119.38754 38140 ft 487 kts 117°
2026-04-23 21:10 -11.19990 119.41755 38416 ft 486 kts 117°
2026-04-23 21:10 -11.21642 119.44747 38750 ft 484 kts 117°
2026-04-23 21:11 -11.24953 119.50751 38820 ft 488 kts 117°
2026-04-23 21:11 -11.28281 119.56788 38865 ft 489 kts 117°
2026-04-23 21:12 -11.31616 119.62843 38868 ft 491 kts 118°
2026-04-23 21:12 -11.34953 119.68902 38870 ft 491 kts 117°
2026-04-23 21:13 -11.38295 119.74976 38868 ft 490 kts 117°
2026-04-23 21:13 -11.41627 119.81034 38889 ft 489 kts 117°
2026-04-23 21:14 -11.44947 119.87074 38870 ft 488 kts 117°
2026-04-23 21:14 -11.48256 119.93099 38871 ft 487 kts 117°
2026-04-23 21:15 -11.51563 119.99123 38893 ft 487 kts 117°
2026-04-23 21:15 -11.54866 120.05146 38870 ft 487 kts 117°
2026-04-23 21:16 -11.58174 120.11178 38868 ft 487 kts 117°
2026-04-23 21:16 -11.61477 120.17206 38871 ft 487 kts 117°
2026-04-23 21:17 -11.64781 120.23241 38877 ft 487 kts 117°
2026-04-23 21:17 -11.68084 120.29276 38877 ft 487 kts 117°
2026-04-23 21:18 -11.71380 120.35303 38879 ft 486 kts 116°
2026-04-23 21:18 -11.74677 120.41336 38887 ft 487 kts 117°
2026-04-23 21:19 -11.77971 120.47366 38897 ft 487 kts 117°
2026-04-23 21:19 -11.81244 120.53362 38874 ft 487 kts 116°
2026-04-23 21:20 -11.84559 120.59438 38878 ft 486 kts 117°
2026-04-23 21:20 -11.87845 120.65466 38882 ft 486 kts 116°
2026-04-23 21:21 -11.91109 120.71457 38883 ft 486 kts 117°
2026-04-23 21:21 -11.94391 120.77486 38894 ft 485 kts 117°
2026-04-23 21:22 -11.97673 120.83518 38881 ft 486 kts 117°
2026-04-23 21:22 -12.01504 120.89229 38895 ft 489 kts 128°
2026-04-23 21:23 -12.06255 120.94245 38881 ft 492 kts 134°
2026-04-23 21:23 -12.11173 120.99105 38884 ft 493 kts 134°
2026-04-23 21:24 -12.16089 121.03991 38887 ft 492 kts 134°
2026-04-23 21:24 -12.20974 121.08892 38886 ft 492 kts 133°
2026-04-23 21:25 -12.25840 121.13799 38884 ft 492 kts 134°
2026-04-23 21:25 -12.30705 121.18709 38900 ft 492 kts 134°
2026-04-23 21:26 -12.35579 121.23629 38908 ft 492 kts 134°
2026-04-23 21:26 -12.40457 121.28553 38904 ft 493 kts 134°
2026-04-23 21:27 -12.45338 121.33482 38891 ft 493 kts 134°
2026-04-23 21:27 -12.50211 121.38406 38889 ft 493 kts 134°
2026-04-23 21:28 -12.55083 121.43333 38893 ft 492 kts 134°
2026-04-23 21:28 -12.59950 121.48257 38893 ft 492 kts 134°
2026-04-23 21:29 -12.64815 121.53182 38910 ft 491 kts 134°
2026-04-23 21:29 -12.69670 121.58100 38897 ft 490 kts 134°
2026-04-23 21:30 -12.74517 121.63011 38893 ft 489 kts 134°
2026-04-23 21:30 -12.79315 121.67878 38920 ft 489 kts 134°
2026-04-23 21:31 -12.84150 121.72783 38917 ft 489 kts 134°
2026-04-23 21:31 -12.88990 121.77698 38915 ft 490 kts 134°
2026-04-23 21:32 -12.93838 121.82622 38905 ft 491 kts 134°
2026-04-23 21:32 -12.98687 121.87550 38916 ft 491 kts 134°
2026-04-23 21:33 -13.03545 121.92490 38905 ft 492 kts 134°
2026-04-23 21:33 -13.08398 121.97428 38902 ft 492 kts 134°
2026-04-23 21:34 -13.13268 122.02387 38925 ft 493 kts 134°
2026-04-23 21:34 -13.18131 122.07341 38907 ft 493 kts 134°
2026-04-23 21:35 -13.22998 122.12302 38905 ft 493 kts 134°
2026-04-23 21:35 -13.27855 122.17256 38922 ft 492 kts 134°
2026-04-23 21:36 -13.35108 122.24659 38905 ft 491 kts 134°
2026-04-23 21:37 -13.39945 122.29600 38922 ft 490 kts 134°
2026-04-23 21:37 -13.44783 122.34545 38925 ft 490 kts 134°
2026-04-23 21:38 -13.48828 122.38682 38912 ft 490 kts 134°
2026-04-23 21:38 -13.53623 122.43589 38932 ft 490 kts 134°
2026-04-23 21:39 -13.58443 122.48524 38926 ft 489 kts 134°
2026-04-23 21:39 -13.63272 122.53471 38934 ft 489 kts 134°
2026-04-23 21:40 -13.68093 122.58413 38926 ft 490 kts 134°
2026-04-23 21:40 -13.72922 122.63366 38927 ft 490 kts 134°
2026-04-23 21:41 -13.77754 122.68325 38932 ft 491 kts 134°
2026-04-23 21:41 -13.82587 122.73289 38921 ft 491 kts 134°
2026-04-23 21:42 -13.87423 122.78259 38920 ft 492 kts 134°
2026-04-23 21:42 -13.92267 122.83241 38937 ft 492 kts 134°
2026-04-23 21:43 -13.97113 122.88226 38921 ft 493 kts 134°
2026-04-23 21:43 -14.01962 122.93218 38935 ft 493 kts 134°
2026-04-23 21:44 -14.06816 122.98219 38930 ft 494 kts 134°
2026-04-23 21:44 -14.11673 123.03227 38937 ft 494 kts 134°
2026-04-23 21:45 -14.16532 123.08239 38941 ft 495 kts 134°
2026-04-23 21:45 -14.21397 123.13261 38942 ft 495 kts 134°
2026-04-23 21:46 -14.26265 123.18289 38930 ft 496 kts 134°
2026-04-23 21:46 -14.31137 123.23324 38939 ft 496 kts 134°
2026-04-23 21:47 -14.36003 123.28356 38939 ft 496 kts 134°
2026-04-23 21:47 -14.40841 123.33363 38933 ft 496 kts 134°
2026-04-23 21:48 -14.45712 123.38407 38947 ft 496 kts 134°
2026-04-23 21:48 -14.50584 123.43456 38937 ft 496 kts 134°
2026-04-23 21:49 -14.55452 123.48504 38943 ft 496 kts 134°
2026-04-23 21:49 -14.60325 123.53561 38944 ft 496 kts 134°
2026-04-23 21:50 -14.65195 123.58617 38947 ft 496 kts 134°
2026-04-23 21:50 -14.70062 123.63675 38941 ft 496 kts 134°
2026-04-23 21:51 -14.74930 123.68736 38952 ft 496 kts 134°
2026-04-23 21:51 -14.79797 123.73799 38955 ft 497 kts 134°
2026-04-23 21:52 -14.84670 123.78873 38942 ft 497 kts 134°
2026-04-23 21:52 -14.89541 123.83947 38955 ft 498 kts 134°
2026-04-23 21:53 -14.94420 123.89034 38949 ft 498 kts 134°
2026-04-23 21:53 -14.99297 123.94123 38953 ft 498 kts 134°
2026-04-23 21:54 -15.04178 123.99219 38950 ft 499 kts 134°
2026-04-23 21:54 -15.09066 124.04325 38961 ft 499 kts 134°
2026-04-23 21:55 -15.13954 124.09435 38962 ft 500 kts 134°
2026-04-23 21:55 -15.18841 124.14547 38968 ft 500 kts 134°
2026-04-23 21:56 -15.23739 124.19675 38965 ft 500 kts 134°
2026-04-23 21:56 -15.28626 124.24794 38972 ft 500 kts 133°
2026-04-23 21:57 -15.33479 124.29882 38966 ft 499 kts 133°
2026-04-23 21:57 -15.38358 124.35001 38976 ft 499 kts 134°
2026-04-23 21:58 -15.43233 124.40120 38971 ft 499 kts 134°
2026-04-23 21:58 -15.48110 124.45243 38971 ft 499 kts 134°
2026-04-23 21:59 -15.52987 124.50370 38974 ft 499 kts 133°
2026-04-23 21:59 -15.57867 124.55506 38974 ft 500 kts 133°
2026-04-23 22:00 -15.65187 124.63215 38967 ft 500 kts 134°
2026-04-23 22:00 -15.70065 124.68358 38990 ft 500 kts 134°
2026-04-23 22:01 -15.74950 124.73510 38987 ft 500 kts 134°
2026-04-23 22:01 -15.79825 124.78661 38990 ft 500 kts 133°
2026-04-23 22:02 -15.84698 124.83817 38997 ft 500 kts 133°
2026-04-23 22:02 -15.89574 124.88980 38986 ft 500 kts 134°
2026-04-23 22:03 -15.94421 124.94115 39004 ft 501 kts 134°
2026-04-23 22:03 -15.99299 124.99287 39015 ft 502 kts 134°
2026-04-23 22:04 -16.04189 125.04476 39013 ft 503 kts 134°
2026-04-23 22:04 -16.09084 125.09675 39013 ft 503 kts 134°
2026-04-23 22:05 -16.13979 125.14877 39009 ft 504 kts 134°
2026-04-23 22:05 -16.18883 125.20092 39024 ft 504 kts 134°
2026-04-23 22:06 -16.23794 125.25319 39018 ft 505 kts 134°
2026-04-23 22:06 -16.28702 125.30547 39018 ft 505 kts 134°
2026-04-23 22:07 -16.33614 125.35783 39039 ft 505 kts 134°
2026-04-23 22:07 -16.38518 125.41016 39023 ft 505 kts 134°
2026-04-23 22:08 -16.43427 125.46257 39035 ft 505 kts 134°
2026-04-23 22:08 -16.48336 125.51495 39043 ft 505 kts 134°
2026-04-23 22:09 -16.53248 125.56732 39040 ft 505 kts 134°
2026-04-23 22:09 -16.58153 125.61966 39046 ft 505 kts 134°
2026-04-23 22:10 -16.63065 125.67215 39034 ft 506 kts 134°
2026-04-23 22:10 -16.67973 125.72464 39042 ft 506 kts 134°
2026-04-23 22:11 -16.72887 125.77723 39062 ft 506 kts 134°
2026-04-23 22:11 -16.77806 125.82992 39042 ft 506 kts 134°
2026-04-23 22:12 -16.82718 125.88258 39042 ft 507 kts 134°
2026-04-23 22:12 -16.87607 125.93502 39044 ft 507 kts 134°
2026-04-23 22:13 -16.92532 125.98790 39050 ft 508 kts 134°
2026-04-23 22:13 -16.97494 126.04121 39047 ft 509 kts 134°
2026-04-23 22:14 -17.02435 126.09435 39043 ft 510 kts 134°
2026-04-23 22:14 -17.07370 126.14746 39046 ft 510 kts 135°
2026-04-23 22:15 -17.12321 126.20080 39043 ft 511 kts 135°
2026-04-23 22:15 -17.17270 126.25414 39052 ft 511 kts 134°
2026-04-23 22:16 -17.22220 126.30755 39050 ft 512 kts 134°
2026-04-23 22:16 -17.27176 126.36106 39047 ft 512 kts 134°
2026-04-23 22:17 -17.32128 126.41458 39046 ft 512 kts 135°
2026-04-23 22:17 -17.37051 126.46783 39050 ft 512 kts 135°
2026-04-23 22:18 -17.42007 126.52147 39051 ft 512 kts 135°
2026-04-23 22:18 -17.46959 126.57511 39053 ft 512 kts 134°
2026-04-23 22:19 -17.51902 126.62871 39056 ft 512 kts 134°
2026-04-23 22:19 -17.56849 126.68239 39057 ft 512 kts 134°
2026-04-23 22:20 -17.61789 126.73605 39057 ft 511 kts 134°
2026-04-23 22:20 -17.66723 126.78968 39062 ft 510 kts 134°
2026-04-23 22:21 -17.71650 126.84328 39059 ft 510 kts 134°
2026-04-23 22:21 -17.76571 126.89686 39073 ft 511 kts 135°
2026-04-23 22:22 -17.81499 126.95056 39069 ft 511 kts 135°
2026-04-23 22:22 -17.86432 127.00437 39070 ft 511 kts 135°
2026-04-23 22:23 -17.90530 127.04910 39073 ft 512 kts 135°
2026-04-23 22:23 -17.95466 127.10303 39072 ft 512 kts 135°
2026-04-23 22:24 -18.00406 127.15704 39072 ft 513 kts 135°
2026-04-23 22:24 -18.06157 127.21997 39082 ft 514 kts 135°
2026-04-23 22:25 -18.10306 127.26542 39084 ft 514 kts 135°
2026-04-23 22:25 -18.15258 127.31972 39085 ft 514 kts 135°
2026-04-23 22:26 -18.20177 127.37370 39096 ft 515 kts 135°
2026-04-23 22:26 -18.25130 127.42808 39084 ft 515 kts 135°
2026-04-23 22:27 -18.30081 127.48251 39084 ft 515 kts 135°
2026-04-23 22:27 -18.35033 127.53703 39088 ft 515 kts 135°
2026-04-23 22:28 -18.39982 127.59158 39092 ft 515 kts 135°
2026-04-23 22:28 -18.44930 127.64616 39096 ft 515 kts 135°
2026-04-23 22:29 -18.49876 127.70077 39093 ft 515 kts 135°
2026-04-23 22:29 -18.54820 127.75541 39101 ft 515 kts 135°
2026-04-23 22:30 -18.59758 127.81002 39093 ft 515 kts 135°
2026-04-23 22:30 -18.64696 127.86469 39103 ft 515 kts 135°
2026-04-23 22:31 -18.69634 127.91940 39107 ft 515 kts 135°
2026-04-23 22:31 -18.74568 127.97413 39109 ft 515 kts 135°
2026-04-23 22:32 -18.79505 128.02893 39102 ft 515 kts 135°
2026-04-23 22:32 -18.84438 128.08375 39106 ft 515 kts 135°
2026-04-23 22:33 -18.89372 128.13861 39098 ft 516 kts 135°
2026-04-23 22:33 -18.94308 128.19356 39106 ft 516 kts 136°
2026-04-23 22:34 -18.99248 128.24859 39101 ft 516 kts 136°
2026-04-23 22:34 -19.04186 128.30366 39107 ft 516 kts 135°
2026-04-23 22:35 -19.09127 128.35881 39099 ft 516 kts 136°
2026-04-23 22:35 -19.14063 128.41396 39102 ft 517 kts 136°
2026-04-23 22:36 -19.19005 128.46923 39102 ft 517 kts 136°
2026-04-23 22:36 -19.23941 128.52447 39110 ft 517 kts 136°
2026-04-23 22:37 -19.28848 128.57945 39117 ft 517 kts 136°
2026-04-23 22:37 -19.33783 128.63479 39108 ft 516 kts 136°
2026-04-23 22:38 -19.38739 128.69044 39102 ft 515 kts 136°
2026-04-23 22:38 -19.43641 128.74551 39109 ft 513 kts 136°
2026-04-23 22:39 -19.48489 128.80003 39119 ft 511 kts 136°
2026-04-23 22:39 -19.53352 128.85477 39114 ft 509 kts 136°
2026-04-23 22:40 -19.58198 128.90938 39118 ft 508 kts 136°
2026-04-23 22:41 -19.65446 128.99113 39119 ft 507 kts 136°
2026-04-23 22:41 -19.70274 129.04565 39120 ft 507 kts 136°
2026-04-23 22:42 -19.75101 129.10021 39125 ft 507 kts 136°
2026-04-23 22:42 -19.79932 129.15487 39124 ft 508 kts 136°
2026-04-23 22:43 -19.84768 129.20965 39128 ft 509 kts 136°
2026-04-23 22:43 -19.89610 129.26454 39134 ft 510 kts 136°
2026-04-23 22:44 -19.94454 129.31950 39129 ft 510 kts 136°
2026-04-23 22:44 -19.99300 129.37455 39128 ft 509 kts 136°
2026-04-23 22:45 -20.04135 129.42953 39139 ft 508 kts 136°
2026-04-23 22:45 -20.08963 129.48448 39145 ft 508 kts 136°
2026-04-23 22:46 -20.13779 129.53933 39135 ft 507 kts 136°
2026-04-23 22:46 -20.18580 129.59409 39139 ft 506 kts 136°
2026-04-23 22:47 -20.23376 129.64882 39139 ft 505 kts 136°
2026-04-23 22:47 -20.28160 129.70348 39149 ft 504 kts 137°
2026-04-23 22:48 -20.32942 129.75816 39141 ft 504 kts 137°
2026-04-23 22:48 -20.37723 129.81288 39143 ft 505 kts 137°
2026-04-23 22:49 -20.42507 129.86770 39145 ft 505 kts 137°
2026-04-23 22:49 -20.47290 129.92256 39153 ft 505 kts 137°
2026-04-23 22:50 -20.52083 129.97757 39151 ft 507 kts 137°
2026-04-23 22:50 -20.56885 130.03276 39145 ft 508 kts 137°
2026-04-23 22:51 -20.61692 130.08805 39152 ft 508 kts 137°
2026-04-23 22:51 -20.66501 130.14343 39157 ft 509 kts 137°
2026-04-23 22:52 -20.71326 130.19905 39146 ft 511 kts 138°
2026-04-23 22:52 -20.76155 130.25476 39151 ft 511 kts 137°
2026-04-23 22:53 -20.80988 130.31058 39157 ft 512 kts 137°
2026-04-23 22:53 -20.85817 130.36642 39169 ft 512 kts 138°
2026-04-23 22:54 -20.90657 130.42244 39161 ft 513 kts 138°
2026-04-23 22:54 -20.95471 130.47820 39158 ft 514 kts 138°
2026-04-23 22:55 -21.00318 130.53441 39167 ft 514 kts 138°
2026-04-23 22:55 -21.05167 130.59071 39178 ft 515 kts 138°
2026-04-23 22:56 -21.10020 130.64711 39170 ft 515 kts 138°
2026-04-23 22:56 -21.14875 130.70358 39173 ft 515 kts 138°
2026-04-23 22:57 -21.19729 130.76011 39179 ft 515 kts 138°
2026-04-23 22:57 -21.24582 130.81669 39185 ft 516 kts 138°
2026-04-23 22:58 -21.29435 130.87332 39184 ft 515 kts 138°
2026-04-23 22:58 -21.34283 130.92997 39181 ft 515 kts 138°
2026-04-23 22:59 -21.39122 130.98656 39184 ft 515 kts 138°
2026-04-23 22:59 -21.43954 131.04313 39198 ft 514 kts 138°
2026-04-23 23:00 -21.48786 131.09977 39185 ft 513 kts 138°
2026-04-23 23:00 -21.53602 131.15627 39193 ft 512 kts 138°
2026-04-23 23:01 -21.58411 131.21275 39195 ft 512 kts 138°
2026-04-23 23:01 -21.63212 131.26920 39197 ft 512 kts 138°
2026-04-23 23:02 -21.67979 131.32534 39198 ft 511 kts 138°
2026-04-23 23:02 -21.72804 131.38223 39196 ft 511 kts 138°
2026-04-23 23:03 -21.77598 131.43882 39194 ft 512 kts 138°
2026-04-23 23:03 -21.82357 131.49505 39199 ft 512 kts 138°
2026-04-23 23:04 -21.87148 131.55173 39206 ft 512 kts 138°
2026-04-23 23:04 -21.91935 131.60842 39203 ft 511 kts 138°
2026-04-23 23:05 -21.96717 131.66512 39205 ft 511 kts 138°
2026-04-23 23:05 -22.01497 131.72185 39216 ft 511 kts 138°
2026-04-23 23:06 -22.06275 131.77862 39204 ft 511 kts 138°
2026-04-23 23:06 -22.11048 131.83538 39215 ft 510 kts 138°
2026-04-23 23:07 -22.15809 131.89208 39225 ft 510 kts 138°
2026-04-23 23:07 -22.20571 131.94883 39216 ft 510 kts 138°
2026-04-23 23:08 -22.25327 132.00559 39215 ft 510 kts 138°
2026-04-23 23:08 -22.30081 132.06238 39220 ft 509 kts 138°
2026-04-23 23:09 -22.34824 132.11911 39235 ft 509 kts 138°
2026-04-23 23:09 -22.39566 132.17587 39226 ft 509 kts 138°
2026-04-23 23:10 -22.43506 132.22308 39218 ft 508 kts 138°
2026-04-23 23:10 -22.48238 132.27984 39224 ft 508 kts 138°
2026-04-23 23:11 -22.52994 132.33563 39007 ft 499 kts 140°
2026-04-23 23:11 -22.55382 132.36266 38501 ft 495 kts 141°
2026-04-23 23:11 -22.57768 132.38945 37854 ft 495 kts 141°
2026-04-23 23:11 -22.60157 132.41628 37197 ft 496 kts 141°
2026-04-23 23:12 -22.62541 132.44316 36647 ft 494 kts 141°
2026-04-23 23:12 -22.64909 132.47001 36195 ft 491 kts 140°
2026-04-23 23:12 -22.67254 132.49671 35769 ft 486 kts 140°
2026-04-23 23:12 -22.69570 132.52315 35367 ft 483 kts 141°
2026-04-23 23:13 -22.71876 132.54950 34930 ft 480 kts 141°
2026-04-23 23:13 -22.74167 132.57567 34479 ft 478 kts 141°
2026-04-23 23:13 -22.76444 132.60169 34026 ft 475 kts 141°
2026-04-23 23:13 -22.78685 132.62737 33438 ft 460 kts 141°
2026-04-23 23:14 -22.80851 132.65223 32559 ft 450 kts 140°
2026-04-23 23:14 -22.82988 132.67671 31583 ft 444 kts 140°
2026-04-23 23:14 -22.85093 132.70079 30683 ft 436 kts 140°
2026-04-23 23:14 -22.87163 132.72447 29727 ft 428 kts 140°
2026-04-23 23:15 -22.89185 132.74763 28785 ft 419 kts 139°
2026-04-23 23:15 -22.91168 132.77035 27867 ft 410 kts 139°
2026-04-23 23:15 -22.93113 132.79264 26964 ft 402 kts 138°
2026-04-23 23:15 -22.94993 132.81419 26096 ft 395 kts 138°
2026-04-23 23:16 -22.96890 132.83594 25222 ft 388 kts 137°
2026-04-23 23:16 -22.98706 132.85676 24424 ft 381 kts 137°
2026-04-23 23:16 -23.00514 132.87751 23571 ft 375 kts 136°
2026-04-23 23:16 -23.02289 132.89790 22656 ft 368 kts 136°
2026-04-23 23:17 -23.04038 132.91798 21814 ft 369 kts 135°
2026-04-23 23:17 -23.05797 132.93819 21404 ft 367 kts 135°
2026-04-23 23:17 -23.07533 132.95816 21144 ft 360 kts 135°
2026-04-23 23:17 -23.09240 132.97780 20867 ft 355 kts 135°
2026-04-23 23:18 -23.10924 132.99720 20513 ft 352 kts 135°
2026-04-23 23:18 -23.12594 133.01642 20137 ft 350 kts 135°
2026-04-23 23:18 -23.14263 133.03566 19782 ft 347 kts 134°
2026-04-23 23:18 -23.15900 133.05453 19372 ft 336 kts 134°
2026-04-23 23:19 -23.17484 133.07280 18589 ft 330 kts 134°
2026-04-23 23:19 -23.19049 133.09084 17835 ft 321 kts 133°
2026-04-23 23:19 -23.20556 133.10824 17525 ft 315 kts 133°
2026-04-23 23:19 -23.22055 133.12554 17149 ft 313 kts 133°
2026-04-23 23:20 -23.23547 133.14278 16774 ft 312 kts 133°
2026-04-23 23:20 -23.25033 133.15995 16414 ft 311 kts 133°
2026-04-23 23:20 -23.26512 133.17704 16052 ft 310 kts 133°
2026-04-23 23:20 -23.27988 133.19410 15687 ft 309 kts 133°
2026-04-23 23:21 -23.29461 133.21113 15324 ft 309 kts 133°
2026-04-23 23:21 -23.30929 133.22812 14965 ft 308 kts 133°
2026-04-23 23:21 -23.32400 133.24515 14593 ft 308 kts 133°
2026-04-23 23:21 -23.33866 133.26212 14220 ft 308 kts 133°
2026-04-23 23:22 -23.35333 133.27911 13820 ft 308 kts 133°
2026-04-23 23:22 -23.36798 133.29609 13441 ft 307 kts 133°
2026-04-23 23:22 -23.38258 133.31301 13074 ft 306 kts 133°
2026-04-23 23:22 -23.39707 133.32981 12717 ft 304 kts 133°
2026-04-23 23:23 -23.41153 133.34659 12361 ft 303 kts 133°
2026-04-23 23:23 -23.42574 133.36308 12002 ft 302 kts 133°
2026-04-23 23:23 -23.44008 133.37972 11652 ft 301 kts 133°
2026-04-23 23:23 -23.45437 133.39631 11304 ft 300 kts 133°
2026-04-23 23:24 -23.46859 133.41283 10954 ft 299 kts 133°
2026-04-23 23:24 -23.48281 133.42935 10535 ft 300 kts 133°
2026-04-23 23:24 -23.49709 133.44594 10262 ft 297 kts 133°
2026-04-23 23:24 -23.51097 133.46208 10147 ft 287 kts 133°
2026-04-23 23:25 -23.52446 133.47778 9842 ft 284 kts 133°
2026-04-23 23:25 -23.53803 133.49356 9420 ft 286 kts 133°
2026-04-23 23:25 -23.55162 133.50936 9073 ft 285 kts 133°
2026-04-23 23:25 -23.56513 133.52509 8729 ft 284 kts 133°
2026-04-23 23:26 -23.57863 133.54081 8395 ft 283 kts 133°
2026-04-23 23:26 -23.59208 133.55649 8057 ft 283 kts 133°
2026-04-23 23:26 -23.60550 133.57213 7733 ft 283 kts 133°
2026-04-23 23:26 -23.61892 133.58777 7406 ft 282 kts 133°
2026-04-23 23:27 -23.63221 133.60328 7082 ft 282 kts 132°
2026-04-23 23:27 -23.64564 133.61895 6759 ft 281 kts 132°
2026-04-23 23:27 -23.65902 133.63455 6405 ft 282 kts 133°
2026-04-23 23:27 -23.67148 133.65083 6069 ft 278 kts 123°
2026-04-23 23:28 -23.68144 133.66887 5758 ft 277 kts 118°
2026-04-23 23:28 -23.69070 133.68696 5606 ft 269 kts 118°
2026-04-23 23:28 -23.69974 133.70408 5530 ft 249 kts 120°
2026-04-23 23:28 -23.70812 133.71973 5321 ft 232 kts 119°
2026-04-23 23:29 -23.71604 133.73452 4995 ft 220 kts 119°
2026-04-23 23:29 -23.72353 133.74850 4729 ft 207 kts 118°
2026-04-23 23:29 -23.73054 133.76162 4489 ft 191 kts 118°
2026-04-23 23:29 -23.73702 133.77372 4236 ft 177 kts 118°
2026-04-23 23:30 -23.74302 133.78489 3969 ft 162 kts 117°
2026-04-23 23:30 -23.74833 133.79483 3806 ft 144 kts 116°
2026-04-23 23:30 -23.75330 133.80415 3622 ft 142 kts 116°
2026-04-23 23:30 -23.75830 133.81353 3460 ft 144 kts 116°
2026-04-23 23:31 -23.76340 133.82306 3262 ft 147 kts 117°
2026-04-23 23:31 -23.76858 133.83272 3081 ft 147 kts 116°
2026-04-23 23:31 -23.77368 133.84226 2893 ft 144 kts 118°
2026-04-23 23:31 -23.77874 133.85176 2677 ft 145 kts 119°
2026-04-23 23:32 -23.78386 133.86131 2489 ft 148 kts 120°
2026-04-23 23:32 -23.78910 133.87111 2307 ft 150 kts 120°
2026-04-23 23:32 -23.79435 133.88091 2091 ft 149 kts 120°
2026-04-23 23:32 -23.79963 133.89057 1874 ft 148 kts 120°
2026-04-23 23:33 -23.80475 133.90009 1788 ft 137 kts 119°
2026-04-23 23:33 -23.80861 133.90744 1786 ft 65 kts 120°
2026-04-23 23:33 -23.81035 133.91069 1786 ft 46 kts 120°
2026-04-23 23:33 -23.81154 133.91330 1786 ft 16 kts 90°
2026-04-23 23:34 -23.81185 133.91368 1785 ft 3 kts 207°
2026-04-23 23:34 -23.81186 133.91347 1784 ft 3 kts 290°
2026-04-23 23:34 -23.81176 133.91324 1787 ft 3 kts 297°
2026-04-23 23:34 -23.81164 133.91301 1787 ft 3 kts 300°
2026-04-23 23:35 -23.81152 133.91279 1785 ft 3 kts 301°
2026-04-23 23:35 -23.81138 133.91255 1788 ft 4 kts 301°
2026-04-23 23:35 -23.81119 133.91222 1785 ft 7 kts 302°
2026-04-23 23:35 -23.81083 133.91162 1787 ft 13 kts 304°
2026-04-23 23:36 -23.81026 133.91058 1788 ft 19 kts 297°
2026-04-23 23:36 -23.80950 133.90911 1788 ft 25 kts 301°
2026-04-23 23:36 -23.80853 133.90732 1786 ft 26 kts 300°
2026-04-23 23:36 -23.80758 133.90557 1788 ft 26 kts 301°
2026-04-23 23:37 -23.80672 133.90398 1788 ft 22 kts 301°
2026-04-23 23:37 -23.80588 133.90335 1787 ft 16 kts
2026-04-23 23:37 -23.80497 133.90372 1787 ft 11 kts
2026-04-23 23:37 -23.80435 133.90312 1786 ft 14 kts 305°
2026-04-23 23:38 -23.80395 133.90240 1787 ft 0 kts 299°
2026-04-23 23:38 -23.80393 133.90236 1787 ft 0 kts 300°
2026-04-23 23:39 -23.80390 133.90231 1787 ft 3 kts 300°
2026-04-23 23:39 -23.80374 133.90187 1787 ft 9 kts 287°
2026-04-23 23:39 -23.80346 133.90145 1787 ft 2 kts 339°
2026-04-23 23:39 -23.80328 133.90155 1787 ft 4 kts 43°
2026-04-23 23:40 -23.80311 133.90179 1787 ft 0 kts 56°
2026-04-23 23:40 -23.80309 133.90182 1787 ft 0 kts 56°